Weather History for Goshen, IN

Change the Weather History Date:

Sunday, April 29, 2012

  Actual Average Record
Temperature  
Mean Temperature 50 °F -  
Max Temperature 64 °F 64 °F 83 °F (1970)
Min Temperature 35 °F 41 °F 27 °F (1979)
Degree Days  
Heating Degree Days 16    
Moisture  
Dew Point 33 °F    
Average Humidity 57    
Maximum Humidity 86    
Minimum Humidity 28    
Precipitation  
Precipitation 0.18 in - - ()
Sea Level Pressure  
Sea Level Pressure 30.23 in    
Wind  
Wind Speed 8 mph (East)    
Max Wind Speed 17 mph    
Max Gust Speed 23 mph    
Visibility 10 miles    
Events Rain    
Averages and records for this station are not official NWS values.
T = Trace of Precipitation, MM = Missing Value Source: NWS Daily Summary

Daily Weather History Graph

Daily Weather History Graph

Search for Another Location

Airport:

Trip Planner

Search our weather history database for the weather conditions in past years. The results will help you decide how hot, cold, wet, or windy it might be!

Date:

Astronomy

Apr. 29, 2012 Rise Set
Actual Time 6:42 AM EDT 8:39 PM EDT
Civil Twilight 6:12 AM EDT 9:09 PM EDT
Nautical Twilight 5:35 AM EDT 9:46 PM EDT
Astronomical Twilight 4:55 AM EDT 10:26 PM EDT
Moon 1:25 PM EDT (4/29) 2:37 AM EDT (4/29)
Length of Visible Light 14h 57m
Length of Day
13h 57m
First Quarter, 53% of the Moon is Illuminated
Apr 29
First Quarter
May 5
Full
May 12
Last Quarter
May 20
New
May 28
First Quarter

Hourly Weather History & Observations

Time (EDT) Temp. Windchill Dew Point Humidity Pressure Visibility Wind Dir Wind Speed Gust Speed Precip Events Conditions
12:53 AM 39.0 °F 34.0 °F 34.0 °F 82% 30.25 in 10.0 mi ENE 6.9 mph - N/A   Clear
1:53 AM 37.9 °F 33.5 °F 33.1 °F 83% 30.25 in 10.0 mi East 5.8 mph - N/A   Clear
2:53 AM 36.0 °F 33.3 °F 32.0 °F 86% 30.25 in 9.0 mi ENE 3.5 mph - N/A   Clear
3:53 AM 37.0 °F 31.6 °F 30.9 °F 79% 30.24 in 10.0 mi ENE 6.9 mph - N/A   Clear
4:53 AM 36.0 °F 32.1 °F 30.0 °F 79% 30.25 in 10.0 mi East 4.6 mph - N/A   Clear
5:53 AM 35.1 °F 32.2 °F 30.0 °F 82% 30.27 in 10.0 mi East 3.5 mph - N/A   Clear
6:53 AM 35.1 °F - 30.0 °F 82% 30.29 in 10.0 mi Calm Calm - N/A   Clear
7:53 AM 39.0 °F 34.0 °F 30.9 °F 73% 30.29 in 10.0 mi ENE 6.9 mph - N/A   Clear
8:53 AM 45.0 °F 40.1 °F 35.1 °F 68% 30.29 in 10.0 mi East 9.2 mph - N/A   Clear
9:53 AM 46.9 °F - 33.1 °F 59% 30.28 in 10.0 mi East 13.8 mph - N/A   Clear
10:53 AM 53.1 °F - 37.0 °F 55% 30.30 in 10.0 mi East 9.2 mph - N/A   Clear
11:53 AM 57.0 °F - 37.9 °F 49% 30.29 in 10.0 mi East 13.8 mph - N/A   Clear
12:53 PM 60.1 °F - 34.0 °F 38% 30.29 in 10.0 mi East 11.5 mph 20.7 mph N/A   Clear
1:53 PM 63.0 °F - 34.0 °F 34% 30.26 in 10.0 mi ESE 13.8 mph - N/A   Clear
2:53 PM 64.0 °F - 32.0 °F 30% 30.22 in 10.0 mi East 17.3 mph 21.9 mph N/A   Clear
3:53 PM 64.0 °F - 34.0 °F 33% 30.19 in 10.0 mi East 15.0 mph 23.0 mph N/A   Partly Cloudy
4:53 PM 64.9 °F - 34.0 °F 32% 30.17 in 10.0 mi East 13.8 mph - N/A   Clear
5:53 PM 64.0 °F - 30.0 °F 28% 30.19 in 10.0 mi ESE 11.5 mph - N/A   Clear
6:53 PM 61.0 °F - 36.0 °F 39% 30.17 in 10.0 mi East 11.5 mph - N/A   Mostly Cloudy
7:53 PM 59.0 °F - 33.1 °F 38% 30.16 in 10.0 mi East 11.5 mph - N/A   Partly Cloudy
8:53 PM 55.9 °F - 30.9 °F 39% 30.16 in 10.0 mi East 13.8 mph - 0.00 in Rain Light Rain
9:53 PM 48.9 °F - 35.1 °F 59% 30.20 in 5.0 mi ESE 12.7 mph - 0.07 in Rain Rain
10:53 PM 46.0 °F 40.6 °F 36.0 °F 68% 30.18 in 6.0 mi East 11.5 mph - 0.08 in Rain Light Rain
11:53 PM 46.0 °F 41.0 °F 34.0 °F 63% 30.15 in 10.0 mi East 10.4 mph - 0.03 in   Mostly Cloudy